ANA729 ROAH-RJFF

Flight info

Callsign ANA729
Flight time 1h 13m
Altitude 39000
Route AMAMI Y25 ISKUP
Aircraft B77W/H-SDE1E2E3FGHIJ2J3J4J5M1RWXY/LB1D1

Departure

Time 2026-04-26 11:51
Airport Naha International Airport (ROAH)

Arrival

Time 2026-04-26 13:04
Airport Fukuoka Airport (RJFF)
Time Latitude Longitude Altitude Speed Heading
2026-04-26 11:28 26.20713 127.64845 29 ft 0 kts 48°
2026-04-26 11:42 26.20654 127.64794 29 ft 2 kts 346°
2026-04-26 11:43 26.20641 127.64801 29 ft 2 kts 317°
2026-04-26 11:43 26.20632 127.64814 29 ft 2 kts 289°
2026-04-26 11:43 26.20630 127.64830 29 ft 2 kts 264°
2026-04-26 11:43 26.20631 127.64847 29 ft 2 kts 265°
2026-04-26 11:44 26.20632 127.64864 29 ft 2 kts 268°
2026-04-26 11:44 26.20633 127.64876 29 ft 0 kts 269°
2026-04-26 11:46 26.20632 127.64865 29 ft 3 kts 269°
2026-04-26 11:46 26.20631 127.64818 29 ft 8 kts 267°
2026-04-26 11:46 26.20589 127.64759 29 ft 12 kts 197°
2026-04-26 11:46 26.20487 127.64751 29 ft 16 kts 178°
2026-04-26 11:47 26.20355 127.64758 29 ft 20 kts 178°
2026-04-26 11:47 26.20198 127.64764 29 ft 24 kts 178°
2026-04-26 11:47 26.20019 127.64772 29 ft 25 kts 177°
2026-04-26 11:47 26.19844 127.64782 29 ft 24 kts 178°
2026-04-26 11:48 26.19681 127.64790 29 ft 22 kts 178°
2026-04-26 11:48 26.19526 127.64796 29 ft 21 kts 178°
2026-04-26 11:48 26.19381 127.64803 29 ft 20 kts 177°
2026-04-26 11:48 26.19229 127.64810 29 ft 22 kts 178°
2026-04-26 11:49 26.19064 127.64817 29 ft 25 kts 176°
2026-04-26 11:49 26.18882 127.64828 29 ft 24 kts 178°
2026-04-26 11:49 26.18799 127.64742 29 ft 17 kts 269°
2026-04-26 11:49 26.18812 127.64640 29 ft 10 kts 331°
2026-04-26 11:50 26.18867 127.64623 29 ft 8 kts 357°
2026-04-26 11:50 26.19026 127.64613 29 ft 54 kts 357°
2026-04-26 11:50 26.19669 127.64586 29 ft 128 kts 358°
2026-04-26 11:50 26.20735 127.64523 345 ft 161 kts 355°
2026-04-26 11:51 26.21844 127.64462 1170 ft 164 kts 356°
2026-04-26 11:51 26.23010 127.64404 1840 ft 172 kts 357°
2026-04-26 11:51 26.24317 127.64356 2115 ft 205 kts 358°
2026-04-26 11:51 26.25807 127.64221 2662 ft 225 kts 343°
2026-04-26 11:52 26.27296 127.63455 3218 ft 247 kts 330°
2026-04-26 11:52 26.28800 127.62486 4082 ft 255 kts 329°
2026-04-26 11:52 26.30331 127.61494 5181 ft 254 kts 329°
2026-04-26 11:52 26.31848 127.60512 6101 ft 259 kts 328°
2026-04-26 11:53 26.33447 127.59535 7048 ft 263 kts 336°
2026-04-26 11:53 26.35252 127.59169 7869 ft 274 kts 359°
2026-04-26 11:53 26.37155 127.59370 8719 ft 280 kts
2026-04-26 11:54 26.41107 127.59920 10383 ft 292 kts
2026-04-26 11:54 26.43134 127.60401 10922 ft 314 kts 19°
2026-04-26 11:54 26.45054 127.61761 11412 ft 339 kts 35°
2026-04-26 11:54 26.46921 127.63506 11998 ft 356 kts 37°
2026-04-26 11:55 26.48841 127.65348 12572 ft 373 kts 37°
2026-04-26 11:55 26.50850 127.67280 13200 ft 388 kts 37°
2026-04-26 11:55 26.52906 127.69259 13981 ft 398 kts 37°
2026-04-26 11:55 26.55021 127.71299 14987 ft 402 kts 37°
2026-04-26 11:56 26.57122 127.73326 15999 ft 406 kts 37°
2026-04-26 11:56 26.59273 127.75402 16968 ft 411 kts 37°
2026-04-26 11:56 26.61432 127.77486 17911 ft 416 kts 37°
2026-04-26 11:56 26.63633 127.79614 18811 ft 422 kts 36°
2026-04-26 11:57 26.65864 127.81770 19598 ft 430 kts 36°
2026-04-26 11:57 26.68149 127.83978 20399 ft 438 kts 36°
2026-04-26 11:57 26.70454 127.86208 21213 ft 444 kts 36°
2026-04-26 11:57 26.72821 127.88500 22011 ft 451 kts 36°
2026-04-26 11:58 26.75200 127.90804 22818 ft 456 kts 36°
2026-04-26 11:58 26.77635 127.93164 23589 ft 463 kts 36°
2026-04-26 11:58 26.80093 127.95548 24371 ft 468 kts 36°
2026-04-26 11:58 26.82545 127.97929 25171 ft 473 kts 36°
2026-04-26 11:59 26.85080 128.00391 25932 ft 479 kts 36°
2026-04-26 11:59 26.87661 128.02899 26703 ft 484 kts 36°
2026-04-26 11:59 26.90302 128.05467 27523 ft 489 kts 36°
2026-04-26 11:59 26.92890 128.07987 28281 ft 493 kts 36°
2026-04-26 12:00 26.94592 128.09644 28761 ft 496 kts 36°
2026-04-26 12:00 26.98095 128.13055 29633 ft 504 kts 36°
2026-04-26 12:00 27.00738 128.15634 30287 ft 508 kts 36°
2026-04-26 12:00 27.03446 128.18274 30789 ft 515 kts 36°
2026-04-26 12:01 27.06171 128.20935 31420 ft 518 kts 36°
2026-04-26 12:01 27.08876 128.23579 32093 ft 520 kts 36°
2026-04-26 12:01 27.11622 128.26266 32792 ft 520 kts 37°
2026-04-26 12:01 27.14354 128.28941 33390 ft 521 kts 37°
2026-04-26 12:02 27.17138 128.31668 33913 ft 524 kts 37°
2026-04-26 12:02 27.19891 128.34367 34439 ft 527 kts 37°
2026-04-26 12:02 27.22631 128.37054 34964 ft 529 kts 37°
2026-04-26 12:02 27.25408 128.39780 35521 ft 529 kts 37°
2026-04-26 12:03 27.28219 128.42541 36094 ft 529 kts 37°
2026-04-26 12:03 27.30955 128.45233 36593 ft 530 kts 37°
2026-04-26 12:03 27.33763 128.47995 36975 ft 532 kts 37°
2026-04-26 12:04 27.39380 128.53526 37011 ft 536 kts 37°
2026-04-26 12:04 27.44981 128.59052 37002 ft 535 kts 37°
2026-04-26 12:05 27.50598 128.64600 37000 ft 536 kts 37°
2026-04-26 12:05 27.56195 128.70136 36986 ft 536 kts 38°
2026-04-26 12:06 27.61878 128.75763 36989 ft 538 kts 38°
2026-04-26 12:06 27.67460 128.81302 36980 ft 535 kts 38°
2026-04-26 12:07 27.73080 128.86885 36979 ft 535 kts 38°
2026-04-26 12:07 27.78639 128.92416 36974 ft 534 kts 38°
2026-04-26 12:08 27.84222 128.97977 36972 ft 536 kts 38°
2026-04-26 12:08 27.89854 129.03597 36962 ft 536 kts 38°
2026-04-26 12:09 27.95428 129.09164 36963 ft 537 kts 38°
2026-04-26 12:09 28.01022 129.14761 36963 ft 537 kts 38°
2026-04-26 12:10 28.06606 129.20357 36953 ft 537 kts 38°
2026-04-26 12:10 28.12227 129.25996 36960 ft 537 kts 38°
2026-04-26 12:11 28.17799 129.31596 36955 ft 536 kts 38°
2026-04-26 12:11 28.23368 129.37199 36955 ft 537 kts 38°
2026-04-26 12:12 28.28970 129.42845 36962 ft 540 kts 38°
2026-04-26 12:12 28.34567 129.48496 36960 ft 537 kts 38°
2026-04-26 12:13 28.40228 129.53996 36945 ft 536 kts 31°
2026-04-26 12:13 28.46713 129.57982 36954 ft 529 kts 15°
2026-04-26 12:14 28.53744 129.59941 36971 ft 513 kts
2026-04-26 12:14 28.60788 129.60976 36972 ft 511 kts
2026-04-26 12:15 28.67856 129.62018 36956 ft 511 kts
2026-04-26 12:15 28.74916 129.63077 36965 ft 511 kts
2026-04-26 12:16 28.81965 129.64142 36969 ft 509 kts
2026-04-26 12:16 28.88989 129.65212 36952 ft 507 kts
2026-04-26 12:17 28.96001 129.66280 36948 ft 512 kts
2026-04-26 12:17 29.03014 129.67355 36951 ft 508 kts
2026-04-26 12:18 29.10006 129.68428 36940 ft 506 kts
2026-04-26 12:18 29.17016 129.69504 36936 ft 510 kts
2026-04-26 12:19 29.24053 129.70589 36932 ft 506 kts
2026-04-26 12:19 29.31023 129.71663 36926 ft 506 kts
2026-04-26 12:20 29.38028 129.72745 36929 ft 505 kts
2026-04-26 12:20 29.44978 129.73820 36924 ft 505 kts
2026-04-26 12:21 29.51925 129.74898 36922 ft 504 kts
2026-04-26 12:21 29.58912 129.75981 36924 ft 506 kts
2026-04-26 12:22 29.65864 129.77061 36897 ft 505 kts
2026-04-26 12:22 29.72848 129.78149 36910 ft 504 kts
2026-04-26 12:23 29.79814 129.79234 36902 ft 504 kts
2026-04-26 12:23 29.86786 129.80322 36903 ft 506 kts
2026-04-26 12:24 29.93751 129.81412 36903 ft 502 kts
2026-04-26 12:24 30.00669 129.82495 36905 ft 502 kts
2026-04-26 12:25 30.11046 129.83644 36906 ft 500 kts 359°
2026-04-26 12:25 30.17988 129.84372 36890 ft 499 kts 359°
2026-04-26 12:26 30.24953 129.85113 36896 ft 500 kts 359°
2026-04-26 12:26 30.31883 129.85857 36888 ft 499 kts 359°
2026-04-26 12:27 30.38797 129.86603 36896 ft 500 kts 359°
2026-04-26 12:27 30.45748 129.87357 36892 ft 499 kts 359°
2026-04-26 12:28 30.52683 129.88110 36893 ft 499 kts 359°
2026-04-26 12:28 30.59617 129.88866 36892 ft 499 kts 359°
2026-04-26 12:29 30.66547 129.89622 36886 ft 498 kts 359°
2026-04-26 12:30 30.76909 129.90755 36891 ft 499 kts 359°
2026-04-26 12:30 30.80361 129.91133 36764 ft 498 kts 359°
2026-04-26 12:30 30.83828 129.91513 37033 ft 501 kts 359°
2026-04-26 12:31 30.90782 129.92276 36919 ft 498 kts 359°
2026-04-26 12:31 30.94240 129.92656 36930 ft 499 kts 359°
2026-04-26 12:31 31.01150 129.93414 36907 ft 498 kts 360°
2026-04-26 12:32 31.08059 129.94176 36917 ft 496 kts 360°
2026-04-26 12:33 31.18411 129.95317 36910 ft 499 kts 360°
2026-04-26 12:33 31.25305 129.96078 36895 ft 498 kts 360°
2026-04-26 12:34 31.32202 129.96783 36917 ft 495 kts 358°
2026-04-26 12:34 31.39100 129.97310 36910 ft 496 kts 358°
2026-04-26 12:35 31.45956 129.97841 36914 ft 492 kts 358°
2026-04-26 12:35 31.52814 129.98377 36914 ft 494 kts 358°
2026-04-26 12:36 31.59632 129.98914 36907 ft 494 kts 358°
2026-04-26 12:36 31.66519 129.99460 36902 ft 494 kts 358°
2026-04-26 12:37 31.73386 130.00005 36911 ft 494 kts 358°
2026-04-26 12:37 31.80241 130.00551 36866 ft 492 kts 358°
2026-04-26 12:38 31.87111 130.01099 36925 ft 496 kts 358°
2026-04-26 12:38 31.93957 130.01648 36905 ft 491 kts 359°
2026-04-26 12:38 31.97397 130.01924 36737 ft 486 kts 358°
2026-04-26 12:39 32.00734 130.02193 36014 ft 487 kts 358°
2026-04-26 12:39 32.04162 130.02466 35177 ft 490 kts 359°
2026-04-26 12:39 32.07530 130.02734 34418 ft 494 kts 359°
2026-04-26 12:39 32.10982 130.03012 33573 ft 498 kts 359°
2026-04-26 12:40 32.14424 130.03288 32602 ft 501 kts 360°
2026-04-26 12:40 32.17896 130.03567 31632 ft 503 kts 360°
2026-04-26 12:40 32.21350 130.03848 30650 ft 500 kts
2026-04-26 12:40 32.24824 130.04131 30027 ft 486 kts
2026-04-26 12:41 32.28132 130.04402 29568 ft 465 kts
2026-04-26 12:41 32.31318 130.04662 29143 ft 454 kts
2026-04-26 12:41 32.34439 130.04915 28609 ft 447 kts
2026-04-26 12:41 32.37546 130.05165 28239 ft 454 kts 360°
2026-04-26 12:42 32.40694 130.05417 27929 ft 458 kts
2026-04-26 12:42 32.43873 130.05675 27626 ft 455 kts
2026-04-26 12:42 32.47006 130.05928 27326 ft 452 kts
2026-04-26 12:42 32.50190 130.06187 27017 ft 452 kts
2026-04-26 12:43 32.53319 130.06441 26717 ft 451 kts
2026-04-26 12:43 32.56412 130.06692 26419 ft 448 kts
2026-04-26 12:43 32.59507 130.06841 26111 ft 444 kts 355°
2026-04-26 12:43 32.62607 130.06456 25802 ft 443 kts 347°
2026-04-26 12:44 32.65590 130.05736 25499 ft 441 kts 345°
2026-04-26 12:44 32.68598 130.04971 25128 ft 438 kts 345°
2026-04-26 12:44 32.71567 130.04216 24750 ft 435 kts 345°
2026-04-26 12:44 32.74490 130.03470 24379 ft 433 kts 345°
2026-04-26 12:45 32.77454 130.02716 24000 ft 430 kts 345°
2026-04-26 12:45 32.80358 130.01976 23621 ft 422 kts 346°
2026-04-26 12:45 32.83200 130.01253 23157 ft 416 kts 346°
2026-04-26 12:45 32.86004 130.00537 22617 ft 413 kts 346°
2026-04-26 12:46 32.88826 129.99817 22051 ft 410 kts 346°
2026-04-26 12:46 32.91571 129.99116 21493 ft 407 kts 346°
2026-04-26 12:46 32.94358 129.98406 20935 ft 403 kts 346°
2026-04-26 12:46 32.97078 129.97710 20381 ft 400 kts 346°
2026-04-26 12:47 32.99776 129.97020 19828 ft 398 kts 346°
2026-04-26 12:47 33.02483 129.96327 19269 ft 395 kts 346°
2026-04-26 12:47 33.05133 129.95650 18712 ft 392 kts 346°
2026-04-26 12:47 33.07811 129.94963 18150 ft 389 kts 346°
2026-04-26 12:48 33.10464 129.94284 17596 ft 387 kts 346°
2026-04-26 12:48 33.13092 129.93610 17035 ft 384 kts 346°
2026-04-26 12:48 33.15696 129.92943 16472 ft 382 kts 346°
2026-04-26 12:48 33.18270 129.92282 15922 ft 380 kts 346°
2026-04-26 12:49 33.20841 129.91621 15506 ft 377 kts 346°
2026-04-26 12:49 33.23434 129.91013 15238 ft 382 kts 350°
2026-04-26 12:49 33.26055 129.90654 15037 ft 375 kts 352°
2026-04-26 12:49 33.28646 129.90328 14503 ft 374 kts 352°
2026-04-26 12:50 33.31261 129.89995 13867 ft 376 kts 352°
2026-04-26 12:50 33.33859 129.89665 13358 ft 373 kts 352°
2026-04-26 12:50 33.36426 129.89339 13042 ft 366 kts 352°
2026-04-26 12:50 33.38955 129.89012 13003 ft 369 kts 352°
2026-04-26 12:51 33.41507 129.88681 12997 ft 370 kts 352°
2026-04-26 12:51 33.44059 129.88345 12999 ft 370 kts 352°
2026-04-26 12:51 33.46639 129.88003 12650 ft 370 kts 352°
2026-04-26 12:51 33.49170 129.87665 12180 ft 365 kts 352°
2026-04-26 12:52 33.51690 129.87323 11695 ft 361 kts 352°
2026-04-26 12:52 33.54182 129.86978 11203 ft 357 kts 352°
2026-04-26 12:52 33.56612 129.86630 10814 ft 351 kts 352°
2026-04-26 12:52 33.59028 129.86279 10443 ft 344 kts 352°
2026-04-26 12:53 33.61377 129.85933 10076 ft 337 kts 353°
2026-04-26 12:53 33.63686 129.85979 9765 ft 330 kts 11°
2026-04-26 12:53 33.65754 129.86992 9668 ft 317 kts 33°
2026-04-26 12:53 33.67299 129.88814 9607 ft 304 kts 50°
2026-04-26 12:54 33.68541 129.90775 9556 ft 291 kts 52°
2026-04-26 12:54 33.69722 129.92699 9500 ft 279 kts 52°
2026-04-26 12:54 33.70853 129.94553 9294 ft 274 kts 52°
2026-04-26 12:54 33.71952 129.96403 8996 ft 272 kts 58°
2026-04-26 12:55 33.72664 129.98511 8668 ft 273 kts 70°
2026-04-26 12:55 33.73225 130.00684 8328 ft 270 kts 71°
2026-04-26 12:55 33.73762 130.02815 7985 ft 268 kts 71°
2026-04-26 12:55 33.74298 130.04945 7666 ft 265 kts 71°
2026-04-26 12:56 33.74830 130.07085 7309 ft 264 kts 71°
2026-04-26 12:56 33.75346 130.09166 6963 ft 262 kts 71°
2026-04-26 12:56 33.75861 130.11252 6645 ft 260 kts 71°
2026-04-26 12:56 33.76374 130.13342 6282 ft 258 kts 71°
2026-04-26 12:57 33.76881 130.15396 5960 ft 256 kts 71°
2026-04-26 12:57 33.77388 130.17433 5618 ft 254 kts 71°
2026-04-26 12:57 33.77893 130.19440 5287 ft 253 kts 71°
2026-04-26 12:58 33.78899 130.23476 4614 ft 250 kts 72°
2026-04-26 12:58 33.79388 130.25455 4303 ft 247 kts 71°
2026-04-26 12:58 33.79866 130.27420 4041 ft 241 kts 77°
2026-04-26 12:58 33.79798 130.29387 3766 ft 237 kts 107°
2026-04-26 12:59 33.78905 130.30989 3488 ft 235 kts 138°
2026-04-26 12:59 33.77568 130.32082 3260 ft 230 kts 145°
2026-04-26 12:59 33.76214 130.33070 3008 ft 221 kts 147°
2026-04-26 12:59 33.74908 130.33978 2761 ft 212 kts 148°
2026-04-26 13:00 33.73653 130.34830 2520 ft 205 kts 148°
2026-04-26 13:00 33.72411 130.35666 2272 ft 199 kts 148°
2026-04-26 13:00 33.71219 130.36472 2051 ft 192 kts 148°
2026-04-26 13:00 33.70095 130.37234 2010 ft 178 kts 147°
2026-04-26 13:01 33.69051 130.37946 2011 ft 168 kts 147°
2026-04-26 13:01 33.68054 130.38625 1927 ft 161 kts 147°
2026-04-26 13:01 33.67109 130.39270 1722 ft 151 kts 147°
2026-04-26 13:01 33.66205 130.39887 1529 ft 147 kts 147°
2026-04-26 13:02 33.65328 130.40486 1337 ft 144 kts 148°
2026-04-26 13:02 33.64444 130.41087 1142 ft 145 kts 148°
2026-04-26 13:02 33.63576 130.41679 952 ft 144 kts 148°
2026-04-26 13:02 33.62738 130.42250 765 ft 145 kts 148°
2026-04-26 13:03 33.62050 130.42722 626 ft 144 kts 149°
2026-04-26 13:03 33.61158 130.43315 415 ft 145 kts 149°
2026-04-26 13:03 33.60285 130.43918 229 ft 144 kts 150°
2026-04-26 13:03 33.59428 130.44501 58 ft 140 kts 150°
2026-04-26 13:04 33.58669 130.45012 48 ft 97 kts 152°
2026-04-26 13:04 33.58248 130.45306 48 ft 50 kts 144°
2026-04-26 13:04 33.58085 130.45520 48 ft 16 kts 112°
2026-04-26 13:04 33.58126 130.45602 48 ft 13 kts 358°
2026-04-26 13:05 33.58218 130.45554 48 ft 15 kts 330°
2026-04-26 13:05 33.58320 130.45483 48 ft 17 kts 330°
2026-04-26 13:05 33.58423 130.45413 48 ft 16 kts 330°
2026-04-26 13:05 33.58524 130.45344 48 ft 18 kts 330°
2026-04-26 13:06 33.58649 130.45261 48 ft 22 kts 330°
2026-04-26 13:06 33.58793 130.45163 48 ft 24 kts 330°
2026-04-26 13:06 33.58948 130.45056 49 ft 26 kts 330°
2026-04-26 13:06 33.59105 130.44949 49 ft 25 kts 330°
2026-04-26 13:07 33.59233 130.44865 49 ft 17 kts 342°
2026-04-26 13:07 33.59343 130.44855 49 ft 14 kts 359°
2026-04-26 13:07 33.59432 130.44821 49 ft 14 kts 332°
2026-04-26 13:07 33.59524 130.44760 48 ft 14 kts 330°
2026-04-26 13:08 33.59591 130.44717 48 ft 6 kts 340°
2026-04-26 13:08 33.59613 130.44725 48 ft 2 kts 48°
2026-04-26 13:08 33.59620 130.44739 48 ft 2 kts 61°
2026-04-26 13:08 33.59633 130.44765 48 ft 2 kts 60°
2026-04-26 13:09 33.59639 130.44780 48 ft 1 kts 60°
2026-04-26 13:09 33.59641 130.44785 48 ft 0 kts 60°